[[{"header":{"parameterUnit":"m.s-1","parameterCategory":1,"la1":30.2991,"la2":30.254,"lo1":-89.0895,"lo2":-89.0444,"dy":0.0017,"dx":0.0017,"nx":28,"ny":28,"refTime":"2024-12-19T03:00:00:Z","depth":0,"parameterNumber":2,"parameterNumberName":"U-component_of_WINDS"},"data":[0,0,0,0,0,0,0,0,0,0,0,0,0,0,0,0,0,0,0,0,0,0,0,0,0,0,0,0,0,0,0,0,0,0,0,0,0,0,0,0,0,0,0,0,0,0,0,0,0,0,0,0,0,0,0,0,0,0,1.7161,1.716,0,1.7121,1.712,1.712,1.7079,1.7078,1.7078,1.7077,1.7034,1.7034,1.7033,0,0,0,0,0,0,0,0,0,0,0,0,0,1.72,1.72,1.7161,1.716,1.716,1.7121,1.712,1.712,1.7079,1.7078,1.7078,1.7077,1.7034,1.7034,1.7033,0,0,0,0,0,0,0,0,0,0,0,0,0,1.7174,1.72,1.7161,1.7135,1.7132,1.7121,1.712,1.712,1.7079,1.7078,1.7077,1.7077,1.7035,1.7034,1.7033,1.7044,0,0,1.703,1.703,0,0,0,0,0,0,0,0,1.7176,1.7173,1.7139,1.7137,1.7133,1.7104,1.7119,1.7094,1.7079,1.7099,1.7077,1.7076,1.7058,1.7055,1.7049,1.7042,1.704,1.703,1.7029,1.7029,1.7029,0,0,0,0,0,0,0,1.7178,1.7174,1.7145,1.7139,1.7135,1.7125,1.712,1.7114,1.7084,1.7097,1.7094,1.709,1.7056,1.705,1.7048,1.7039,1.703,1.7029,1.7029,1.7028,1.704,1.7041,0,0,0,0,0,0,1.7184,1.7176,1.7146,1.7144,1.7153,1.7125,1.7119,1.7114,1.7084,1.7078,1.7091,1.7088,1.7052,1.7049,1.7046,1.7057,1.7029,1.7028,1.7028,1.7039,1.704,1.7041,0,0,0,0,0,0,1.7185,1.7181,1.7148,1.7159,1.7154,1.7125,1.7119,1.7114,1.7108,1.7079,1.7073,1.7091,1.7052,1.7048,1.7045,1.7055,1.7028,1.7027,1.7038,1.7039,1.704,1.708,0,0,0,0,0,0,1.7186,1.7182,1.7186,1.7159,1.7154,1.7148,1.712,1.7114,1.7107,1.7103,1.7077,1.7072,1.7051,1.7047,1.7044,1.7054,1.7026,1.7037,1.7038,1.704,1.7077,1.7082,1.7086,0,0,0,0,0,1.7187,1.7198,1.7186,1.7183,1.7158,1.7148,1.7145,1.7121,1.7108,1.7111,1.7093,1.7073,1.7055,1.7047,1.7044,1.7053,1.7036,1.7038,1.704,1.7075,1.7081,1.7086,0,0,0,0,0,0,1.7225,1.7194,1.7181,1.7183,1.7169,1.7141,1.7145,1.7128,1.7116,1.7113,1.7083,1.7078,1.7079,1.7066,1.7057,1.7062,1.7043,1.7044,1.7071,1.7076,1.7081,1.7083,1.7025,0,0,0,0,0,1.7234,1.7229,1.7202,1.7207,1.72,1.7174,1.7169,1.7152,1.7136,1.7129,1.711,1.7095,1.7086,1.708,1.707,1.7076,1.7069,1.7081,1.7085,1.7089,1.709,1.7092,1.7097,1.7047,1.7047,1.7047,0,0,1.7252,1.7234,1.7233,1.7214,1.7201,1.7196,1.7169,1.7165,1.7161,1.7128,1.7125,1.7111,1.7092,1.7093,1.7093,1.7082,1.7103,1.7091,1.7095,1.7094,1.7095,1.71,1.7104,1.7049,1.7048,1.7048,0,0,1.7281,1.7268,1.727,1.7258,1.7239,1.7222,1.7223,1.7199,1.7188,1.7185,1.716,1.7155,1.714,1.7127,1.7119,1.7146,1.7127,1.7144,1.7167,1.7169,1.7173,1.7177,1.7186,1.719,1.7145,1.7146,1.7146,0,1.7305,1.7298,1.7274,1.7272,1.7264,1.7236,1.7238,1.7227,1.7206,1.7201,1.719,1.7171,1.7156,1.7155,1.7161,1.7156,1.7156,1.7146,1.7175,1.7178,1.7181,1.7189,1.7193,1.7148,1.7147,1.7147,1.7147,0,1.7329,1.7324,1.7328,1.7309,1.7302,1.7303,1.7278,1.7274,1.7259,1.7243,1.724,1.7221,1.7207,1.7206,1.719,1.7202,1.7196,1.7181,1.716,1.7188,1.7196,1.7199,1.7151,1.715,1.7149,1.7149,0,0,1.7379,1.7348,1.735,1.7342,1.7319,1.7315,1.7314,1.7302,1.7299,1.7285,1.7284,1.7273,1.7258,1.7249,1.7232,1.7234,1.7257,1.7218,1.7217,1.7225,1.727,1.7281,1.7285,1.7245,1.7245,1.7246,1.7271,0,1.7405,1.7402,1.7381,1.7384,1.7379,1.7353,1.7352,1.7338,1.7324,1.7318,1.7301,1.7294,1.7276,1.727,1.7271,1.7254,1.7265,1.7252,1.7242,1.7242,1.7247,1.7289,1.7301,1.7326,1.7274,1.7274,1.7275,0,1.7433,1.7423,1.7426,1.7405,1.7402,1.7402,1.7389,1.7384,1.7368,1.7357,1.7348,1.7329,1.7326,1.7308,1.7304,1.7296,1.7291,1.7282,1.7282,1.728,1.726,1.7287,1.7333,1.7337,1.7279,1.7279,1.7279,0,1.747,1.7457,1.7457,1.745,1.7425,1.7426,1.7416,1.7399,1.7393,1.7382,1.7378,1.7367,1.736,1.7352,1.733,1.7319,1.7329,1.7309,1.732,1.732,1.7322,1.7322,1.7367,1.732,1.732,1.732,1.732,0,1.75,1.7503,1.7473,1.7473,1.7475,1.7451,1.7454,1.7441,1.7427,1.7424,1.7401,1.7398,1.737,1.7365,1.7348,1.7348,1.7345,1.7336,1.7331,1.7338,1.7339,1.7333,1.7331,1.7321,1.7321,1.7321,1.7321,0,1.754,1.7521,1.7519,1.7496,1.7491,1.7494,1.7474,1.7473,1.7458,1.7454,1.7452,1.7428,1.7421,1.7399,1.7385,1.7374,1.7378,1.737,1.7384,1.7381,1.7393,1.7392,1.7435,1.7439,1.7391,1.7391,1.7392,0,1.756,1.7562,1.754,1.7537,1.7528,1.7522,1.7517,1.7494,1.7489,1.7472,1.7473,1.7464,1.7455,1.7444,1.7425,1.7415,1.7406,1.7422,1.7404,1.7411,1.7405,1.7405,1.7405,1.7425,1.7426,1.7426,1.7427,0,1.7598,1.7589,1.7581,1.7571,1.7565,1.7556,1.7545,1.7544,1.7518,1.7514,1.7506,1.75,1.7487,1.7478,1.7465,1.7454,1.7436,1.7433,1.7435,1.7441,1.7449,1.7444,1.7394,1.7432,1.7431,1.7431,1.7431,1.743,1.7628,1.7629,1.7614,1.7607,1.7597,1.7588,1.7586,1.7571,1.7565,1.7553,1.754,1.7534,1.7519,1.75,1.749,1.7485,1.7476,1.7479,1.7479,1.748,1.7483,1.7451,1.7483,1.7483,1.7483,1.7483,1.7482,0,1.7664,1.7654,1.7648,1.7634,1.7629,1.7614,1.7602,1.7598,1.7594,1.7581,1.7574,1.7566,1.7557,1.7539,1.7529,1.7528,1.752,1.7526,1.7526,1.7523,1.7492,1.7491,1.7533,1.7533,1.7533,1.7533,1.7533,1.7533,1.7682,1.7682,1.7672,1.7667,1.7656,1.765,1.7645,1.7636,1.7627,1.7619,1.7612,1.76,1.7586,1.7575,1.7566,1.7561,1.7558,1.7567,1.7559,1.753,1.7525,1.7521,1.752,1.7567,1.7567,1.7591,1.7591,1.7591]},{"header":{"parameterUnit":"m.s-1","parameterCategory":1,"la1":30.2991,"la2":30.254,"lo1":-89.0895,"lo2":-89.0444,"dy":0.0017,"dx":0.0017,"nx":28,"ny":28,"refTime":"2024-12-19T03:00:00:Z","depth":0,"parameterNumber":3,"parameterNumberName":"V-component_of_WINDS"},"data":[0,0,0,0,0,0,0,0,0,0,0,0,0,0,0,0,0,0,0,0,0,0,0,0,0,0,0,0,0,0,0,0,0,0,0,0,0,0,0,0,0,0,0,0,0,0,0,0,0,0,0,0,0,0,0,0,0,0,-3.914,-3.9141,0,-3.9311,-3.9313,-3.9315,-3.9275,-3.9272,-3.9268,-3.9265,-3.944,-3.9448,-3.9455,0,0,0,0,0,0,0,0,0,0,0,0,0,-3.8776,-3.8783,-3.9139,-3.9142,-3.9144,-3.9311,-3.9313,-3.9316,-3.9276,-3.9271,-3.9268,-3.9264,-3.9438,-3.9447,-3.9456,0,0,0,0,0,0,0,0,0,0,0,0,0,-3.8939,-3.8785,-3.9139,-3.9144,-3.9146,-3.9311,-3.9313,-3.9316,-3.9276,-3.9271,-3.9266,-3.9262,-3.9435,-3.9446,-3.9457,-3.9628,0,0,-3.9493,-3.9498,0,0,0,0,0,0,0,0,-3.893,-3.8953,-3.9141,-3.9144,-3.9147,-3.9267,-3.9249,-3.9421,-3.9278,-3.9227,-3.9265,-3.9259,-3.9387,-3.9402,-3.9445,-3.9636,-3.9643,-3.9494,-3.9501,-3.9506,-3.9509,0,0,0,0,0,0,0,-3.8919,-3.8945,-3.9207,-3.9144,-3.9147,-3.9137,-3.9155,-3.9282,-3.9332,-3.9231,-3.9228,-3.9249,-3.9387,-3.9434,-3.9449,-3.9646,-3.9494,-3.9504,-3.9511,-3.9516,-3.9985,-3.9991,0,0,0,0,0,0,-3.8905,-3.8936,-3.9202,-3.9213,-3.9024,-3.9148,-3.9168,-3.9233,-3.9331,-3.9341,-3.9253,-3.9247,-3.9416,-3.9435,-3.9455,-3.966,-3.9506,-3.9517,-3.9523,-3.998,-3.9987,-3.9993,0,0,0,0,0,0,-3.8898,-3.8929,-3.9195,-3.9074,-3.9107,-3.9159,-3.9233,-3.9239,-3.9286,-3.9348,-3.9356,-3.9292,-3.9413,-3.9438,-3.9585,-3.9666,-3.9522,-3.9532,-3.9973,-3.9982,-3.999,-4.0073,0,0,0,0,0,0,-3.8887,-3.8927,-3.8992,-3.9075,-3.9113,-3.9323,-3.9238,-3.9246,-3.9306,-3.9299,-3.9386,-3.9396,-3.9411,-3.9568,-3.9597,-3.9679,-3.9541,-3.9966,-3.9977,-3.9987,-4.0064,-4.0084,-4.0101,0,0,0,0,0,-3.8875,-3.9009,-3.8996,-3.9028,-3.9196,-3.9328,-3.935,-3.9365,-3.9313,-3.9379,-3.9418,-3.9393,-3.9652,-3.9583,-3.9615,-3.9703,-3.9961,-3.9974,-3.9986,-4.0055,-4.008,-4.01,0,0,0,0,0,0,-3.8934,-3.902,-3.9006,-3.9172,-3.9243,-3.9321,-3.9405,-3.939,-3.9477,-3.9467,-3.9482,-3.9502,-3.9652,-3.9692,-3.9613,-3.9872,-3.9799,-3.9819,-3.9841,-3.9865,-3.9883,-3.987,-3.9551,0,0,0,0,0,-3.8966,-3.9066,-3.9136,-3.9275,-3.9311,-3.9352,-3.941,-3.9415,-3.949,-3.9519,-3.957,-3.9643,-3.974,-3.9805,-3.9898,-4.0069,-4.0088,-4.0145,-4.0163,-4.0178,-4.0195,-4.0289,-4.0315,-4.0033,-4.0033,-4.0033,0,0,-3.9033,-3.9093,-3.9155,-3.9288,-3.9344,-3.9447,-3.9377,-3.9489,-3.9566,-3.9536,-3.9678,-3.9718,-3.98,-3.996,-4.0033,-3.9998,-4.0277,-4.0194,-4.0205,-4.0214,-4.0304,-4.0331,-4.0354,-4.0042,-4.004,-4.0039,0,0,-3.9209,-3.9265,-3.9387,-3.9444,-3.9529,-3.9556,-3.9585,-3.9666,-3.9691,-3.9834,-3.9814,-3.9905,-4.0073,-4.0132,-4.0185,-4.0384,-4.0363,-4.0413,-4.051,-4.0601,-4.0623,-4.0643,-4.0714,-4.0739,-4.043,-4.043,-4.043,0,-3.9283,-3.9437,-3.9451,-3.9565,-3.9624,-3.9603,-3.9726,-3.9781,-3.9893,-3.9934,-3.9893,-4.0104,-4.0158,-4.0331,-4.038,-4.0423,-4.0457,-4.0404,-4.0619,-4.0639,-4.0658,-4.0726,-4.0752,-4.0436,-4.0435,-4.0434,-4.0434,0,-3.9523,-3.9631,-3.9719,-3.9828,-3.9897,-4.0015,-4.0047,-4.0115,-4.0114,-4.0145,-4.029,-4.0354,-4.046,-4.0502,-4.0502,-4.0676,-4.0651,-4.0615,-4.0542,-4.069,-4.0754,-4.078,-4.0444,-4.0442,-4.044,-4.0438,0,0,-3.9742,-3.9856,-3.9889,-3.9938,-4.0031,-4.0114,-4.0231,-4.0335,-4.0393,-4.0471,-4.057,-4.0713,-4.068,-4.0739,-4.0746,-4.0826,-4.098,-4.078,-4.0782,-4.0815,-4.1175,-4.1202,-4.1232,-4.0967,-4.0972,-4.0976,-4.1168,0,-3.9926,-4.0133,-4.0149,-4.0335,-4.0435,-4.0416,-4.0518,-4.0586,-4.0617,-4.0706,-4.0741,-4.0842,-4.079,-4.0826,-4.0904,-4.0944,-4.1052,-4.0931,-4.1059,-4.1063,-4.1039,-4.1265,-4.1295,-4.1473,-4.1193,-4.1197,-4.12,0,-4.0169,-4.0254,-4.0451,-4.053,-4.0572,-4.0664,-4.0761,-4.0846,-4.0922,-4.094,-4.1006,-4.1002,-4.1123,-4.1045,-4.1211,-4.1128,-4.1181,-4.1209,-4.1216,-4.1229,-4.1141,-4.1285,-4.153,-4.1557,-4.124,-4.1237,-4.1234,0,-4.0309,-4.0473,-4.0612,-4.0654,-4.075,-4.0815,-4.0857,-4.0929,-4.0991,-4.1075,-4.1115,-4.1212,-4.1266,-4.1341,-4.1364,-4.1305,-4.1529,-4.1453,-4.1547,-4.1547,-4.1595,-4.1592,-4.1853,-4.1629,-4.1629,-4.1628,-4.1628,0,-4.0513,-4.0635,-4.0676,-4.0761,-4.0896,-4.0913,-4.1046,-4.1085,-4.1149,-4.1242,-4.1231,-4.1318,-4.1342,-4.1434,-4.1452,-4.1587,-4.1611,-4.1628,-4.1632,-4.163,-4.1627,-4.1665,-4.1653,-4.1635,-4.1634,-4.1632,-4.1631,0,-4.0693,-4.0725,-4.0875,-4.0953,-4.0976,-4.1072,-4.1139,-4.1221,-4.1251,-4.1368,-4.1397,-4.1444,-4.1551,-4.1581,-4.1709,-4.1721,-4.188,-4.1872,-4.1854,-4.1854,-4.1947,-4.1938,-4.2242,-4.2282,-4.2031,-4.2033,-4.2035,0,-4.0821,-4.0914,-4.1002,-4.1064,-4.1109,-4.1208,-4.1271,-4.1291,-4.1357,-4.1451,-4.1522,-4.1628,-4.1714,-4.1886,-4.1931,-4.2029,-4.2024,-4.2123,-4.2038,-4.2033,-4.2026,-4.202,-4.203,-4.2139,-4.2142,-4.2144,-4.2146,0,-4.1046,-4.1058,-4.1149,-4.1247,-4.1322,-4.14,-4.1474,-4.1525,-4.1555,-4.163,-4.174,-4.1806,-4.1937,-4.2043,-4.2142,-4.2185,-4.2172,-4.2172,-4.2199,-4.2198,-4.2185,-4.2194,-4.1899,-4.2165,-4.2163,-4.2162,-4.2161,-4.216,-4.1204,-4.1286,-4.1361,-4.1463,-4.1521,-4.1591,-4.1672,-4.1713,-4.1804,-4.1913,-4.1919,-4.2038,-4.2112,-4.2244,-4.2293,-4.2386,-4.2357,-4.2396,-4.2406,-4.2415,-4.2423,-4.217,-4.2404,-4.2404,-4.2403,-4.2403,-4.2403,0,-4.1429,-4.1476,-4.157,-4.1675,-4.1755,-4.1735,-4.1816,-4.1885,-4.199,-4.206,-4.2145,-4.2271,-4.2373,-4.2427,-4.2528,-4.2592,-4.2588,-4.2618,-4.2614,-4.2624,-4.2444,-4.2411,-4.262,-4.262,-4.262,-4.262,-4.262,-4.262,-4.1556,-4.1693,-4.1713,-4.1879,-4.1926,-4.2043,-4.2091,-4.2155,-4.2211,-4.2353,-4.2438,-4.2472,-4.2536,-4.2642,-4.2734,-4.2747,-4.2785,-4.2819,-4.2829,-4.2659,-4.2637,-4.2616,-4.2585,-4.2827,-4.2827,-4.3002,-4.3003,-4.3004]}]]